Regional Weather Roundup
Issued by NWS Newport/Morehead, NC

Current Version | Previous Version | Text Only | Print | Product List | Glossary On
Versions: 1 2 3 4 5 6 7 8 9 10 11 12 13 14 15 16 17 18 19 20 21 22 23 24 25 26 27 28 29 30 31 32 33 34 35 36 37 38 39 40 41 42 43 44 45 46 47 48 49 50
000
ASUS42 KMHX 030012
RWRMHX
WEATHER ROUNDUP FOR EASTERN NORTH CAROLINA
NATIONAL WEATHER SERVICE NEWPORT/MOREHEAD CITY NC
700 PM EST MON MAR 02 2015

NOTE: "FAIR" INDICATES FEW OR NO CLOUDS BELOW 12,000 FEET
WITH NO SIGNIFICANT WEATHER AND/OR OBSTRUCTIONS TO VISIBILITY

NCZ015>017-031-032-045>047-102-103-030100-
NORTH COAST

CITY           SKY/WX    TMP DP  RH WIND       PRES   REMARKS
EDENTON        PTCLDY    40  35  81 E6        30.33R
ELIZABETH CITY MOCLDY    40  30  67 NE9       30.35R
KITTY HAWK     MOCLDY    38  31  78 NE8       30.32R
MANTEO         MOCLDY    39  28  65 NE9       30.34R

$$

NCZ045>047-081-094-103-104-030100-
CENTRAL COAST

CITY           SKY/WX    TMP DP  RH WIND       PRES   REMARKS
FRISCO         PTCLDY    40  32  73 NE12G20   30.34R
SWANQUARTER      N/A     43 N/A N/A NE12G20   30.30S

$$

NCZ095-097-098-100-101-030100-
SOUTHERN COAST

CITY           SKY/WX    TMP DP  RH WIND       PRES   REMARKS
BEAUFORT       CLEAR     43  34  70 NE13G22   30.31R
CEDAR ISLAND     N/A     41 N/A N/A NE8G17    30.36R
JACKSONVILLE   NOT AVBL
PINEY ISLAND     N/A    N/A N/A N/A MISG      30.32R
WILMINGTON     CLEAR     52  47  83 CALM      30.27R


$$

NCZ011>013-027>030-043-044-078>080-089-090>093-098-030100-
COASTAL PLAIN

CITY           SKY/WX    TMP DP  RH WIND       PRES   REMARKS
AHOSKIE        PTCLDY    44  37  76 CALM      30.32R
CLINTON        PTCLDY    52  44  74 CALM      30.28R
ELIZABETHTOWN  PTCLDY    55  47  76 CALM      30.26R
GOLDSBORO      MOCLDY    56  47  71 CALM      30.26R
GREENVILLE     CLEAR     50  43  76 E6        30.31R
HAVELOCK       CLEAR     44  34  67 E8        30.32R
KENANSVILLE    PTCLDY    50  41  72 CALM      30.28R
KINSTON        NOT AVBL
NEW BERN       CLEAR     45  36  70 E8        30.32R
RICHLANDS      CLEAR     50  41  71 E13       30.30R
ROCKY MOUNT    PTCLDY    50  43  77 NE6       30.30R
WASHINGTON     CLEAR     46  38  73 E7        30.32R
WHITEVILLE     PTCLDY    55  49  82 CALM      30.26R

$$

AMZ130-135-150-152-154-156-158-170-250-252-270-ANZ085-086-088-633-658-670-030100-
MARINE OBSERVATIONS

STATION/POSITION TIME  TEMP    WIND        PRES    WAVE   SWELL
                       AIR SEA DIR/SP/G            HT/PER HT/PER
                 (UTC) (F)     (DEG/KT/KT) (MB)    (FT/S) (FT/S)
CHESAPEAKE LIGHT 2300   39      10/  7/  8 1027.5
64 E VA BEACH    2350   45 53  350/ 21/ 25 1026.1    5/ 6   2/ 8
DUCK             2300   38 35   30/  7/  9 1025.6
2 E DUCK         2311      35                N/A     2/ 8
10 NE DUCK       2322      37                N/A     2/ 7
OREGON INLET     2300   38 43   10/  9/ 13 1026.1
HATTERAS CG      2300   41 44   30/ 10/ 14 1026.7
CAPE LOOKOUT     0000   45      40/ 26/ 29 1026.1
BEAUFORT LAB     2300   45 44   60/  7/ 13 1024.4
27 SE WRIGHTSVLE NOT AVBL
5 SE WRIGHTSVLE  NOT AVBL
225 S CAPE HAT   2350   72 73  320/ 17/ 21 1022.6    5/ 9   3/ 9
41 SE CHARLESTON 2350   62 68  340/  4/  6 1023.4    3/10   3/10

$$


USA.gov is the U.S. government's official web portal to all federal, state and local government web resources and services.